[[{"header":{"parameterUnit":"m.s-1","parameterCategory":1,"la1":30.2991,"la2":30.254,"lo1":-89.0895,"lo2":-89.0444,"dy":0.0017,"dx":0.0017,"nx":28,"ny":28,"refTime":"2023-10-19T21:00:00:Z","depth":0,"parameterNumber":2,"parameterNumberName":"U-component_of_WINDS"},"data":[0,0,0,0,0,0,0,0,0,0,0,0,0,0,0,0,0,0,0,0,0,0,0,0,0,0,0,0,0,0,0,0,0,0,0,0,0,0,0,0,0,0,0,0,0,0,0,0,0,0,0,0,0,0,0,0,0,0,4.0418,4.0419,0,4.0541,4.0542,4.0544,4.0499,4.0496,4.0494,4.0491,4.0618,4.0623,4.0629,0,0,0,0,0,0,0,0,0,0,0,0,0,4.0145,4.015,4.0418,4.042,4.0421,4.0541,4.0543,4.0544,4.05,4.0496,4.0493,4.049,4.0616,4.0623,4.063,0,0,0,0,0,0,0,0,0,0,0,0,0,4.0265,4.0152,4.0418,4.0413,4.0414,4.0541,4.0543,4.0545,4.05,4.0496,4.0492,4.0488,4.0613,4.0622,4.0631,4.0769,0,0,4.0658,4.0662,0,0,0,0,0,0,0,0,4.0258,4.0275,4.0412,4.0414,4.0415,4.05,4.0493,4.062,4.0501,4.0468,4.0491,4.0486,4.0582,4.0593,4.0626,4.0775,4.0781,4.0659,4.0664,4.0668,4.0671,0,0,0,0,0,0,0,4.025,4.027,4.0467,4.0414,4.0416,4.0405,4.0418,4.0517,4.0547,4.047,4.0467,4.0482,4.0582,4.0617,4.0628,4.0783,4.0659,4.0667,4.0672,4.0676,4.1051,4.1055,0,0,0,0,0,0,4.0241,4.0263,4.0463,4.047,4.0325,4.0413,4.0427,4.0477,4.0545,4.0552,4.0486,4.048,4.0604,4.0618,4.0632,4.0798,4.0668,4.0677,4.0682,4.1046,4.1052,4.1057,0,0,0,0,0,0,4.0235,4.0259,4.0458,4.0366,4.039,4.0423,4.0479,4.0482,4.0517,4.0557,4.0562,4.0516,4.0601,4.062,4.0735,4.0802,4.0681,4.0689,4.1041,4.1048,4.1054,4.113,0,0,0,0,0,0,4.0228,4.0258,4.0311,4.0368,4.0396,4.0559,4.0483,4.0487,4.0532,4.0526,4.0587,4.0593,4.0599,4.0722,4.0744,4.0812,4.0696,4.1035,4.1044,4.1052,4.1122,4.1139,4.1153,0,0,0,0,0,4.0218,4.0328,4.0313,4.0338,4.0462,4.0563,4.0579,4.0583,4.0538,4.0591,4.0617,4.0591,4.0791,4.0734,4.0759,4.083,4.1031,4.1041,4.1051,4.1115,4.1136,4.1153,0,0,0,0,0,0,4.0278,4.0335,4.032,4.0451,4.0502,4.0555,4.0622,4.0605,4.0671,4.0662,4.0665,4.0679,4.0797,4.0825,4.0761,4.0967,4.0904,4.092,4.0944,4.0964,4.0979,4.097,4.0703,0,0,0,0,0,4.0306,4.0383,4.0429,4.054,4.0566,4.059,4.0634,4.0633,4.0686,4.0708,4.0742,4.0795,4.0869,4.0919,4.099,4.1126,4.1138,4.1187,4.1203,4.1216,4.1229,4.1302,4.1324,4.1091,4.1091,4.109,0,0,4.0366,4.0406,4.0455,4.0553,4.0592,4.0671,4.0609,4.0695,4.0754,4.0721,4.0831,4.0859,4.0918,4.1044,4.1101,4.1071,4.1296,4.1229,4.1239,4.1245,4.1315,4.1337,4.1356,4.1098,4.1096,4.1095,0,0,4.0514,4.0553,4.0649,4.069,4.075,4.0765,4.0789,4.0844,4.0861,4.0972,4.0948,4.1018,4.1147,4.119,4.1228,4.1392,4.1371,4.1416,4.1497,4.1569,4.1587,4.1603,4.166,4.1681,4.1429,4.1429,4.1429,0,4.058,4.0698,4.0701,4.0789,4.0832,4.0806,4.0903,4.0943,4.1024,4.1055,4.102,4.118,4.1218,4.1353,4.1393,4.1426,4.1452,4.1408,4.1584,4.16,4.1616,4.167,4.1692,4.1434,4.1433,4.1433,4.1433,0,4.0775,4.0858,4.0928,4.1006,4.1058,4.115,4.1167,4.1219,4.1213,4.1232,4.1345,4.139,4.1469,4.1501,4.1497,4.1636,4.1615,4.1582,4.1519,4.1643,4.1694,4.1715,4.1441,4.1439,4.1438,4.1437,0,0,4.0964,4.1042,4.1068,4.1102,4.1167,4.1231,4.1322,4.1398,4.1442,4.1499,4.1575,4.1684,4.1654,4.1698,4.1699,4.1762,4.1887,4.1721,4.1722,4.1749,4.2041,4.2064,4.2088,4.1874,4.1878,4.1881,4.2035,0,4.1116,4.1275,4.128,4.1425,4.1501,4.1477,4.1556,4.1605,4.1625,4.1692,4.1714,4.1791,4.1746,4.1772,4.1833,4.1859,4.1945,4.1848,4.1943,4.1947,4.1927,4.2115,4.214,4.2284,4.2056,4.2059,4.2061,0,4.1314,4.1376,4.1529,4.1582,4.1614,4.1685,4.1755,4.182,4.1874,4.1884,4.1933,4.1924,4.2017,4.1952,4.2079,4.2013,4.2052,4.2071,4.2077,4.2084,4.201,4.2126,4.233,4.2351,4.2093,4.2091,4.2088,0,4.1434,4.1556,4.1663,4.1693,4.1759,4.1809,4.1839,4.1889,4.1934,4.1996,4.2025,4.2098,4.2137,4.2193,4.2204,4.2156,4.2331,4.2267,4.2341,4.2341,4.2378,4.2375,4.2589,4.2406,4.2406,4.2406,4.2405,0,4.1602,4.1696,4.1717,4.1783,4.1887,4.1893,4.1996,4.2022,4.2067,4.2137,4.2122,4.2187,4.2199,4.2267,4.2277,4.238,4.2398,4.2409,4.241,4.2409,4.2408,4.2434,4.2423,4.2411,4.241,4.2409,4.2408,0,4.1752,4.1771,4.1885,4.1938,4.1953,4.2028,4.2072,4.2135,4.2153,4.2242,4.2263,4.2292,4.2372,4.2389,4.2484,4.249,4.2613,4.2605,4.2594,4.2593,4.2665,4.2658,4.2902,4.2934,4.2732,4.2734,4.2736,0,4.1858,4.1929,4.1989,4.2035,4.2066,4.214,4.2186,4.2195,4.2244,4.2311,4.2365,4.2443,4.2506,4.2635,4.2664,4.2737,4.2729,4.281,4.274,4.2737,4.2729,4.2724,4.273,4.2823,4.2825,4.2827,4.2828,0,4.2042,4.2047,4.2114,4.2185,4.224,4.2296,4.2349,4.2388,4.2403,4.2459,4.254,4.2589,4.2685,4.2763,4.2835,4.2866,4.285,4.285,4.2871,4.287,4.286,4.2865,4.2629,4.2844,4.2843,4.2842,4.2841,4.284,4.2172,4.2234,4.2285,4.236,4.2401,4.2451,4.2512,4.2538,4.2606,4.2685,4.2686,4.2774,4.2826,4.2922,4.2957,4.3026,4.3001,4.3031,4.3039,4.3046,4.3051,4.2851,4.304,4.3039,4.3039,4.3038,4.3038,0,4.2353,4.2385,4.2454,4.2529,4.2588,4.2568,4.2626,4.2676,4.2754,4.2804,4.2866,4.2959,4.3034,4.307,4.3144,4.3193,4.3187,4.3212,4.3207,4.3214,4.3071,4.3044,4.3215,4.3215,4.3215,4.3215,4.3215,4.3215,4.2454,4.2558,4.2569,4.2693,4.2724,4.281,4.2845,4.2891,4.2931,4.3035,4.3097,4.312,4.3164,4.3241,4.3309,4.3318,4.3345,4.3373,4.3378,4.3242,4.3224,4.3207,4.3183,4.3379,4.3379,4.3515,4.3516,4.3517]},{"header":{"parameterUnit":"m.s-1","parameterCategory":1,"la1":30.2991,"la2":30.254,"lo1":-89.0895,"lo2":-89.0444,"dy":0.0017,"dx":0.0017,"nx":28,"ny":28,"refTime":"2023-10-19T21:00:00:Z","depth":0,"parameterNumber":3,"parameterNumberName":"V-component_of_WINDS"},"data":[0,0,0,0,0,0,0,0,0,0,0,0,0,0,0,0,0,0,0,0,0,0,0,0,0,0,0,0,0,0,0,0,0,0,0,0,0,0,0,0,0,0,0,0,0,0,0,0,0,0,0,0,0,0,0,0,0,0,1.6576,1.6576,0,1.6617,1.6617,1.6617,1.6601,1.6601,1.66,1.6599,1.6639,1.6641,1.6643,0,0,0,0,0,0,0,0,0,0,0,0,0,1.6482,1.6484,1.6576,1.6576,1.6577,1.6616,1.6617,1.6618,1.6602,1.66,1.6599,1.6598,1.6639,1.6641,1.6643,0,0,0,0,0,0,0,0,0,0,0,0,0,1.6523,1.6485,1.6576,1.6574,1.6574,1.6616,1.6617,1.6618,1.6602,1.66,1.6599,1.6598,1.6638,1.6641,1.6644,1.669,0,0,1.6653,1.6654,0,0,0,0,0,0,0,0,1.6521,1.6526,1.6574,1.6574,1.6574,1.6602,1.6599,1.6642,1.6602,1.6591,1.6599,1.6597,1.6628,1.6632,1.6643,1.6692,1.6694,1.6653,1.6655,1.6656,1.6657,0,0,0,0,0,0,0,1.6518,1.6525,1.6592,1.6574,1.6575,1.657,1.6574,1.6607,1.6617,1.6592,1.6591,1.6596,1.6628,1.664,1.6643,1.6695,1.6653,1.6656,1.6657,1.6659,1.6782,1.6784,0,0,0,0,0,0,1.6515,1.6522,1.6591,1.6593,1.6543,1.6573,1.6578,1.6595,1.6617,1.6619,1.6597,1.6595,1.6635,1.664,1.6645,1.67,1.6656,1.6659,1.6661,1.6781,1.6783,1.6784,0,0,0,0,0,0,1.6513,1.6521,1.6589,1.6557,1.6566,1.6576,1.6596,1.6596,1.6608,1.6621,1.6622,1.6608,1.6635,1.6641,1.6679,1.6701,1.666,1.6663,1.6779,1.6781,1.6784,1.6811,0,0,0,0,0,0,1.6511,1.6521,1.6539,1.6558,1.6567,1.6623,1.6597,1.6598,1.6613,1.6611,1.6631,1.6633,1.6634,1.6674,1.6682,1.6704,1.6665,1.6777,1.678,1.6783,1.6808,1.6814,1.6819,0,0,0,0,0,1.6507,1.6546,1.654,1.6549,1.6591,1.6625,1.663,1.6631,1.6615,1.6633,1.6641,1.6632,1.6697,1.6679,1.6687,1.671,1.6776,1.6779,1.6783,1.6806,1.6813,1.6819,0,0,0,0,0,0,1.653,1.6548,1.6543,1.6588,1.6605,1.6622,1.6645,1.6638,1.666,1.6657,1.6657,1.6661,1.67,1.6709,1.6688,1.6756,1.6734,1.6739,1.6749,1.6756,1.6761,1.6758,1.6668,0,0,0,0,0,1.654,1.6566,1.658,1.6619,1.6628,1.6635,1.665,1.6649,1.6666,1.6673,1.6684,1.67,1.6724,1.674,1.6763,1.6809,1.6812,1.6829,1.6834,1.6839,1.6843,1.6866,1.6874,1.6796,1.6796,1.6796,0,0,1.6561,1.6574,1.6591,1.6624,1.6637,1.6663,1.6641,1.667,1.669,1.6677,1.6714,1.6722,1.674,1.6782,1.6801,1.6791,1.6865,1.6843,1.6846,1.6849,1.6871,1.6878,1.6885,1.6798,1.6798,1.6797,0,0,1.6614,1.6627,1.666,1.6673,1.6692,1.6696,1.6704,1.6722,1.6727,1.6763,1.6754,1.6776,1.6818,1.6832,1.6844,1.6899,1.6891,1.6906,1.6934,1.6957,1.6963,1.6969,1.6988,1.6994,1.691,1.6911,1.6911,0,1.6638,1.6678,1.6677,1.6707,1.6721,1.6711,1.6744,1.6756,1.6782,1.6792,1.678,1.6831,1.6843,1.6886,1.69,1.691,1.6918,1.6904,1.6962,1.6968,1.6973,1.6991,1.6998,1.6912,1.6912,1.6912,1.6912,0,1.6706,1.6733,1.6758,1.6783,1.68,1.6831,1.6834,1.6851,1.6848,1.6853,1.689,1.6903,1.6928,1.6938,1.6936,1.6981,1.6974,1.6962,1.6941,1.6982,1.6999,1.7006,1.6915,1.6914,1.6914,1.6913,0,0,1.6775,1.6798,1.6807,1.6818,1.6838,1.6859,1.6888,1.6913,1.6927,1.6944,1.6969,1.7003,1.6992,1.7006,1.7004,1.7024,1.7066,1.701,1.701,1.7019,1.7116,1.7125,1.7133,1.706,1.7062,1.7063,1.7114,0,1.6829,1.6882,1.6881,1.693,1.6955,1.6944,1.697,1.6984,1.6989,1.701,1.7015,1.704,1.7023,1.7031,1.705,1.7057,1.7085,1.7053,1.7082,1.7083,1.7078,1.7142,1.7152,1.72,1.7121,1.7122,1.7123,0,1.6899,1.6918,1.6969,1.6984,1.6994,1.7018,1.7039,1.706,1.7075,1.7077,1.7091,1.7087,1.7116,1.7093,1.7132,1.711,1.7122,1.7127,1.7128,1.7131,1.7106,1.7146,1.7215,1.7222,1.7133,1.7132,1.7132,0,1.6943,1.6982,1.7018,1.7027,1.7045,1.7062,1.707,1.7084,1.7098,1.7116,1.7125,1.7146,1.7158,1.7174,1.7175,1.7158,1.7214,1.7192,1.7216,1.7216,1.7229,1.7228,1.7301,1.7237,1.7236,1.7236,1.7236,0,1.7003,1.7035,1.7038,1.706,1.7094,1.7092,1.7126,1.7133,1.7145,1.7167,1.7159,1.718,1.7179,1.72,1.72,1.7232,1.7237,1.7239,1.7239,1.724,1.724,1.7248,1.7245,1.7238,1.7238,1.7237,1.7237,0,1.7059,1.7063,1.71,1.7114,1.7118,1.7143,1.7154,1.7174,1.7177,1.7205,1.7212,1.7217,1.7241,1.7243,1.727,1.727,1.7309,1.7305,1.7304,1.7304,1.7328,1.7326,1.7408,1.7419,1.7348,1.7349,1.7349,0,1.7098,1.7122,1.7137,1.7152,1.7161,1.7184,1.7198,1.7197,1.7211,1.723,1.7247,1.727,1.7289,1.7327,1.7333,1.7353,1.735,1.7377,1.7353,1.7353,1.735,1.7348,1.735,1.7382,1.7383,1.7384,1.7384,0,1.7165,1.7165,1.7186,1.7207,1.7223,1.724,1.7255,1.7267,1.7267,1.7284,1.7308,1.7323,1.735,1.7373,1.7392,1.74,1.7392,1.7391,1.7398,1.74,1.7398,1.7399,1.7317,1.739,1.7389,1.7389,1.7389,1.7388,1.7213,1.7233,1.7247,1.727,1.7281,1.7295,1.7315,1.732,1.734,1.7363,1.736,1.7387,1.74,1.7426,1.7435,1.7455,1.7445,1.7455,1.7458,1.746,1.7463,1.7395,1.7458,1.7458,1.7458,1.7458,1.7458,0,1.7279,1.7287,1.7309,1.733,1.7348,1.7338,1.7354,1.7369,1.7393,1.7406,1.7424,1.7451,1.7472,1.7479,1.7499,1.7514,1.7511,1.7519,1.7518,1.752,1.747,1.7462,1.7521,1.7521,1.7521,1.7521,1.7521,1.7521,1.7316,1.7349,1.7351,1.7389,1.7397,1.7423,1.7433,1.7445,1.7455,1.7486,1.7503,1.7508,1.7518,1.7539,1.7557,1.7559,1.7566,1.7577,1.7576,1.753,1.7524,1.7517,1.751,1.7578,1.7578,1.7625,1.7625,1.7625]}]]